| time (UTC) | temp C | wind direction | speed KPH | gust KPH | rain 1hr cm | rain 24hr cm | rain mn cm | humidity % | barometer mb |
| 20260502170511 | 31 | 190 | 0.0 | 3.2 | 0.00 | 0.00 | 0.00 | 39 | 1010.5 |
| 20260502164002 | 30 | 190 | 1.6 | 6.4 | 0.00 | 0.00 | 0.00 | 41 | 1010.9 |
| 20260502163501 | 30 | 190 | 0.0 | 6.4 | 0.00 | 0.00 | 0.00 | 41 | 1010.9 |
| 20260502163112 | 30 | 190 | 1.6 | 6.4 | 0.00 | 0.00 | 0.00 | 41 | 1011.1 |
| 20260502163103 | 30 | 190 | 1.6 | 8.0 | 0.00 | 0.00 | 0.00 | 41 | 1010.6 |
| 20260502162600 | 30 | 190 | 1.6 | 8.0 | 0.00 | 0.00 | 0.00 | 42 | 1011.1 |
| 20260502162059 | 29 | 190 | 0.0 | 9.7 | 0.00 | 0.00 | 0.00 | 43 | 1011.1 |
| 20260502161606 | 29 | 190 | 3.2 | 11.3 | 0.00 | 0.00 | 0.00 | 42 | 1010.6 |
| 20260502161601 | 29 | 190 | 1.6 | 11.3 | 0.00 | 0.00 | 0.00 | 43 | 1011.2 |
| 20260502161059 | 29 | 190 | 1.6 | 6.4 | 0.00 | 0.00 | 0.00 | 43 | 1011.2 |
| 20260502160557 | 29 | 190 | 0.0 | 1.6 | 0.00 | 0.00 | 0.00 | 44 | 1011.3 |
| 20260502152049 | 27 | 190 | 0.0 | 3.2 | 0.00 | 0.00 | 0.00 | 47 | 1011.8 |
| 20260502151625 | 27 | 0 | 0.0 | 3.2 | 0.00 | 0.00 | 0.00 | 47 | 1011.0 |
| 20260502151552 | 27 | 190 | 0.0 | 1.6 | 0.00 | 0.00 | 0.00 | 48 | 1011.7 |
| 20260502151048 | 27 | 190 | 0.0 | 3.2 | 0.00 | 0.00 | 0.00 | 48 | 1011.8 |
| 20260502150546 | 27 | 190 | 0.0 | 3.2 | 0.00 | 0.00 | 0.00 | 48 | 1011.9 |
| 20260502150108 | 27 | 0 | 0.0 | 0.0 | 0.00 | 0.00 | 0.00 | 48 | 1011.0 |
| 20260502130533 | 21 | 190 | 0.0 | 4.8 | 0.00 | 0.00 | 0.00 | 59 | 1011.4 |
| 20260502123529 | 21 | 190 | 0.0 | 0.0 | 0.00 | 0.00 | 0.00 | 59 | 1011.0 |
| 20260502123105 | 21 | 0 | 0.0 | 3.2 | 0.00 | 0.00 | 0.00 | 58 | 1010.2 |
| 20260502123038 | 21 | 190 | 0.0 | 3.2 | 0.00 | 0.00 | 0.00 | 59 | 1011.0 |
| 20260502122527 | 22 | 190 | 0.0 | 0.0 | 0.00 | 0.00 | 0.00 | 59 | 1010.9 |
| 20260502122026 | 22 | 190 | 0.0 | 0.0 | 0.00 | 0.00 | 0.00 | 60 | 1010.9 |
| 20260502121600 | 22 | 0 | 0.0 | 0.0 | 0.00 | 0.00 | 0.00 | 59 | 1010.0 |
| 20260502121526 | 22 | 190 | 0.0 | 0.0 | 0.00 | 0.00 | 0.00 | 60 | 1010.8 |
| 20260502121024 | 22 | 190 | 0.0 | 0.0 | 0.00 | 0.00 | 0.00 | 60 | 1010.7 |
| 20260502120524 | 22 | 190 | 0.0 | 0.0 | 0.00 | 0.00 | 0.00 | 61 | 1010.6 |
| 20260502115522 | 22 | 190 | 0.0 | 0.0 | 0.00 | 0.00 | 0.00 | 63 | 1010.4 |
| 20260502115022 | 22 | 190 | 0.0 | 0.0 | 0.00 | 0.00 | 0.00 | 63 | 1010.3 |
| 20260502114608 | 22 | 0 | 0.0 | 3.2 | 0.00 | 0.00 | 0.00 | 61 | 1009.5 |
| 20260502114521 | 22 | 190 | 0.0 | 3.2 | 0.00 | 0.00 | 0.00 | 62 | 1010.3 |
| 20260502114020 | 22 | 190 | 0.0 | 3.2 | 0.00 | 0.00 | 0.00 | 63 | 1010.2 |
| 20260502113521 | 22 | 190 | 0.0 | 4.8 | 0.00 | 0.00 | 0.00 | 63 | 1010.1 |
| 20260502113105 | 22 | 190 | 1.6 | 4.8 | 0.00 | 0.00 | 0.00 | 62 | 1009.4 |
| 20260502113018 | 22 | 190 | 1.6 | 4.8 | 0.00 | 0.00 | 0.00 | 63 | 1010.1 |
| 20260502112520 | 22 | 190 | 0.0 | 4.8 | 0.00 | 0.00 | 0.00 | 63 | 1010.1 |
| 20260502112015 | 22 | 190 | 1.6 | 4.8 | 0.00 | 0.00 | 0.00 | 63 | 1009.9 |
| 20260502111602 | 22 | 190 | 1.6 | 3.2 | 0.00 | 0.00 | 0.00 | 62 | 1009.3 |
| 20260502111515 | 22 | 190 | 0.0 | 3.2 | 0.00 | 0.00 | 0.00 | 62 | 1009.9 |
| 20260502111013 | 22 | 190 | 0.0 | 0.0 | 0.00 | 0.00 | 0.00 | 62 | 1009.9 |
| 20260502110513 | 23 | 190 | 0.0 | 0.0 | 0.00 | 0.00 | 0.00 | 62 | 1009.8 |
| 20260502110057 | 23 | 0 | 0.0 | 0.0 | 0.00 | 0.00 | 0.00 | 61 | 1008.9 |
| 20260502110011 | 23 | 190 | 0.0 | 0.0 | 0.00 | 0.00 | 0.00 | 61 | 1009.7 |
| 20260502105510 | 23 | 190 | 0.0 | 0.0 | 0.00 | 0.00 | 0.00 | 61 | 1009.6 |
| 20260502105011 | 23 | 190 | 0.0 | 0.0 | 0.00 | 0.00 | 0.00 | 60 | 1009.6 |
| 20260502104600 | 23 | 0 | 0.0 | 0.0 | 0.00 | 0.00 | 0.00 | 59 | 1008.8 |
| 20260502104514 | 23 | 190 | 0.0 | 0.0 | 0.00 | 0.00 | 0.00 | 60 | 1009.6 |
| 20260502104007 | 23 | 190 | 0.0 | 0.0 | 0.00 | 0.00 | 0.00 | 59 | 1009.6 |
| 20260502103506 | 23 | 190 | 0.0 | 0.0 | 0.00 | 0.00 | 0.00 | 58 | 1009.4 |
| 20260502103110 | 23 | 0 | 0.0 | 0.0 | 0.00 | 0.00 | 0.00 | 55 | 1008.7 |
| 20260502103005 | 23 | 190 | 0.0 | 0.0 | 0.00 | 0.00 | 0.00 | 56 | 1009.4 |
| 20260502102504 | 23 | 190 | 0.0 | 0.0 | 0.00 | 0.00 | 0.00 | 56 | 1009.4 |
| 20260502102004 | 23 | 190 | 0.0 | 0.0 | 0.00 | 0.00 | 0.00 | 56 | 1009.3 |
| 20260502101613 | 24 | 0 | 0.0 | 0.0 | 0.00 | 0.00 | 0.00 | 55 | 1008.6 |
| 20260502101503 | 24 | 190 | 0.0 | 0.0 | 0.00 | 0.00 | 0.00 | 56 | 1009.3 |
| 20260502101007 | 24 | 190 | 0.0 | 0.0 | 0.00 | 0.00 | 0.00 | 57 | 1009.2 |
| 20260502100503 | 24 | 190 | 0.0 | 0.0 | 0.00 | 0.00 | 0.00 | 57 | 1009.2 |
| 20260502100133 | 24 | 0 | 0.0 | 0.0 | 0.00 | 0.00 | 0.00 | 58 | 1008.4 |
| 20260502091057 | 25 | 190 | 0.0 | 6.4 | 0.00 | 0.00 | 0.00 | 53 | 1008.9 |
| 20260502090554 | 25 | 190 | 1.6 | 6.4 | 0.00 | 0.00 | 0.00 | 53 | 1008.8 |
| 20260502090130 | 25 | 190 | 0.0 | 6.4 | 0.00 | 0.00 | 0.00 | 52 | 1008.1 |
| 20260502071043 | 26 | 190 | 4.8 | 11.3 | 0.00 | 0.00 | 0.00 | 55 | 1008.7 |
| 20260502070543 | 26 | 190 | 1.6 | 11.3 | 0.00 | 0.00 | 0.00 | 55 | 1008.7 |
| 20260502070059 | 26 | 190 | 4.8 | 12.9 | 0.00 | 0.00 | 0.00 | 54 | 1008.0 |
| 20260502070042 | 26 | 190 | 4.8 | 12.9 | 0.00 | 0.00 | 0.00 | 55 | 1008.7 |
| 20260502065541 | 26 | 190 | 4.8 | 12.9 | 0.00 | 0.00 | 0.00 | 55 | 1008.7 |
| 20260502065042 | 26 | 190 | 1.6 | 9.7 | 0.00 | 0.00 | 0.00 | 55 | 1008.8 |
| 20260502064609 | 26 | 190 | 1.6 | 11.3 | 0.00 | 0.00 | 0.00 | 54 | 1008.1 |
| 20260502064542 | 26 | 190 | 1.6 | 11.3 | 0.00 | 0.00 | 0.00 | 55 | 1008.8 |
| 20260502064042 | 26 | 190 | 1.6 | 11.3 | 0.00 | 0.00 | 0.00 | 55 | 1008.8 |
| 20260502063541 | 26 | 190 | 1.6 | 9.7 | 0.00 | 0.00 | 0.00 | 55 | 1008.8 |
| 20260502063108 | 26 | 190 | 3.2 | 11.3 | 0.00 | 0.00 | 0.00 | 54 | 1008.0 |
| 20260502063021 | 26 | 190 | 1.6 | 11.3 | 0.00 | 0.00 | 0.00 | 55 | 1008.7 |
| 20260502062517 | 26 | 190 | 1.6 | 11.3 | 0.00 | 0.00 | 0.00 | 54 | 1008.7 |
| 20260502062016 | 26 | 190 | 3.2 | 11.3 | 0.00 | 0.00 | 0.00 | 54 | 1008.7 |
| 20260502061613 | 26 | 190 | 1.6 | 14.5 | 0.00 | 0.00 | 0.00 | 53 | 1007.9 |
| 20260502061517 | 26 | 190 | 1.6 | 14.5 | 0.00 | 0.00 | 0.00 | 54 | 1008.6 |
| 20260502061016 | 26 | 190 | 1.6 | 14.5 | 0.00 | 0.00 | 0.00 | 53 | 1008.6 |
| 20260502060516 | 27 | 190 | 3.2 | 14.5 | 0.00 | 0.00 | 0.00 | 53 | 1008.6 |
| 20260502060100 | 27 | 190 | 6.4 | 14.5 | 0.00 | 0.00 | 0.00 | 52 | 1007.9 |
| 20260502060016 | 27 | 190 | 4.8 | 14.5 | 0.00 | 0.00 | 0.00 | 53 | 1008.5 |
| 20260502055516 | 27 | 190 | 6.4 | 14.5 | 0.00 | 0.00 | 0.00 | 52 | 1008.5 |
| 20260502055017 | 27 | 190 | 4.8 | 16.1 | 0.00 | 0.00 | 0.00 | 52 | 1008.4 |
| 20260502054557 | 27 | 190 | 6.4 | 16.1 | 0.00 | 0.00 | 0.00 | 51 | 1007.6 |
| 20260502054516 | 27 | 190 | 6.4 | 16.1 | 0.00 | 0.00 | 0.00 | 51 | 1008.3 |
| 20260502054015 | 27 | 190 | 3.2 | 11.3 | 0.00 | 0.00 | 0.00 | 51 | 1008.2 |
| 20260502053515 | 27 | 190 | 0.0 | 9.7 | 0.00 | 0.00 | 0.00 | 51 | 1008.2 |
| 20260502053113 | 27 | 190 | 3.2 | 9.7 | 0.00 | 0.00 | 0.00 | 50 | 1007.5 |
| 20260502053017 | 27 | 190 | 3.2 | 9.7 | 0.00 | 0.00 | 0.00 | 50 | 1008.2 |
| 20260502052515 | 27 | 190 | 1.6 | 8.0 | 0.00 | 0.00 | 0.00 | 50 | 1008.1 |
| 20260502052015 | 27 | 190 | 0.0 | 8.0 | 0.00 | 0.00 | 0.00 | 50 | 1008.1 |
| 20260502051557 | 27 | 190 | 1.6 | 8.0 | 0.00 | 0.00 | 0.00 | 49 | 1007.5 |
| 20260502051514 | 27 | 190 | 0.0 | 8.0 | 0.00 | 0.00 | 0.00 | 50 | 1008.2 |
| 20260502051014 | 28 | 190 | 0.0 | 6.4 | 0.00 | 0.00 | 0.00 | 49 | 1008.1 |
| 20260502050515 | 28 | 190 | 0.0 | 6.4 | 0.00 | 0.00 | 0.00 | 49 | 1008.0 |
| 20260502050059 | 28 | 0 | 0.0 | 6.4 | 0.00 | 0.00 | 0.00 | 49 | 1007.3 |
| 20260502050014 | 28 | 190 | 0.0 | 6.4 | 0.00 | 0.00 | 0.00 | 49 | 1008.0 |
| 20260502045515 | 28 | 190 | 0.0 | 4.8 | 0.00 | 0.00 | 0.00 | 49 | 1008.0 |
| 20260502045016 | 28 | 190 | 0.0 | 3.2 | 0.00 | 0.00 | 0.00 | 49 | 1007.9 |
| 20260502044559 | 28 | 0 | 0.0 | 3.2 | 0.00 | 0.00 | 0.00 | 48 | 1007.2 |
| 20260502044514 | 28 | 190 | 0.0 | 3.2 | 0.00 | 0.00 | 0.00 | 49 | 1007.8 |
| 20260502044013 | 28 | 190 | 0.0 | 3.2 | 0.00 | 0.00 | 0.00 | 48 | 1007.7 |
| 20260502043516 | 28 | 190 | 0.0 | 4.8 | 0.00 | 0.00 | 0.00 | 48 | 1007.7 |
| 20260502043103 | 28 | 0 | 0.0 | 6.4 | 0.00 | 0.00 | 0.00 | 47 | 1007.1 |
| 20260502043017 | 28 | 190 | 0.0 | 6.4 | 0.00 | 0.00 | 0.00 | 48 | 1007.6 |
| 20260502042513 | 28 | 190 | 0.0 | 6.4 | 0.00 | 0.00 | 0.00 | 48 | 1007.6 |
| 20260502042013 | 28 | 190 | 0.0 | 11.3 | 0.00 | 0.00 | 0.00 | 48 | 1007.6 |
| 20260502041605 | 28 | 0 | 1.6 | 11.3 | 0.00 | 0.00 | 0.00 | 47 | 1006.9 |
| 20260502041517 | 28 | 190 | 0.0 | 11.3 | 0.00 | 0.00 | 0.00 | 47 | 1007.4 |
| 20260502041018 | 28 | 190 | 1.6 | 8.0 | 0.00 | 0.00 | 0.00 | 47 | 1007.4 |
| 20260502040512 | 28 | 190 | 3.2 | 8.0 | 0.00 | 0.00 | 0.00 | 46 | 1007.2 |
| 20260502040100 | 29 | 0 | 1.6 | 6.4 | 0.00 | 0.00 | 0.00 | 45 | 1006.7 |
| 20260502040012 | 29 | 190 | 0.0 | 6.4 | 0.00 | 0.00 | 0.00 | 45 | 1007.2 |
| 20260502035513 | 29 | 190 | 0.0 | 0.0 | 0.00 | 0.00 | 0.00 | 44 | 1007.1 |
| 20260502035011 | 30 | 190 | 0.0 | 0.0 | 0.00 | 0.00 | 0.00 | 43 | 1007.0 |
| 20260502034557 | 30 | 0 | 0.0 | 3.2 | 0.00 | 0.00 | 0.00 | 42 | 1006.4 |
| 20260502034511 | 30 | 190 | 0.0 | 3.2 | 0.00 | 0.00 | 0.00 | 42 | 1007.0 |
| 20260502034010 | 30 | 190 | 0.0 | 3.2 | 0.00 | 0.00 | 0.00 | 42 | 1006.8 |
| 20260502033511 | 30 | 190 | 0.0 | 3.2 | 0.00 | 0.00 | 0.00 | 41 | 1006.7 |
| 20260502033100 | 30 | 0 | 0.0 | 0.0 | 0.00 | 0.00 | 0.00 | 40 | 1005.9 |
| 20260502033013 | 30 | 190 | 0.0 | 0.0 | 0.00 | 0.00 | 0.00 | 40 | 1006.5 |
| 20260502032514 | 30 | 190 | 0.0 | 0.0 | 0.00 | 0.00 | 0.00 | 40 | 1006.4 |
| 20260502032010 | 30 | 190 | 0.0 | 0.0 | 0.00 | 0.00 | 0.00 | 39 | 1006.4 |
| 20260502031602 | 30 | 0 | 0.0 | 0.0 | 0.00 | 0.00 | 0.00 | 38 | 1005.6 |
| 20260502031510 | 30 | 190 | 0.0 | 0.0 | 0.00 | 0.00 | 0.00 | 39 | 1006.2 |
| 20260502031010 | 30 | 190 | 0.0 | 0.0 | 0.00 | 0.00 | 0.00 | 39 | 1006.1 |
| 20260502030510 | 30 | 190 | 0.0 | 3.2 | 0.00 | 0.00 | 0.00 | 38 | 1006.0 |
| 20260502030118 | 31 | 190 | 0.0 | 3.2 | 0.00 | 0.00 | 0.00 | 38 | 1005.4 |
| 20260502030019 | 31 | 190 | 0.0 | 3.2 | 0.00 | 0.00 | 0.00 | 38 | 1005.8 |
| 20260502025509 | 31 | 190 | 0.0 | 1.6 | 0.00 | 0.00 | 0.00 | 38 | 1005.8 |
| 20260502025009 | 31 | 190 | 0.0 | 11.3 | 0.00 | 0.00 | 0.00 | 38 | 1005.6 |
| 20260502024607 | 31 | 190 | 3.2 | 11.3 | 0.00 | 0.00 | 0.00 | 38 | 1005.1 |
| 20260502024509 | 31 | 190 | 1.6 | 11.3 | 0.00 | 0.00 | 0.00 | 38 | 1005.6 |
| 20260502024009 | 31 | 190 | 0.0 | 6.4 | 0.00 | 0.00 | 0.00 | 37 | 1005.4 |
| 20260502023509 | 31 | 190 | 0.0 | 3.2 | 0.00 | 0.00 | 0.00 | 35 | 1005.3 |
| 20260502023100 | 32 | 0 | 0.0 | 6.4 | 0.00 | 0.00 | 0.00 | 35 | 1004.6 |
| 20260502023008 | 32 | 190 | 0.0 | 6.4 | 0.00 | 0.00 | 0.00 | 35 | 1005.2 |
| 20260502022509 | 32 | 190 | 1.6 | 9.7 | 0.00 | 0.00 | 0.00 | 35 | 1005.1 |
| 20260502022010 | 32 | 190 | 1.6 | 9.7 | 0.00 | 0.00 | 0.00 | 34 | 1005.0 |
| 20260502021605 | 32 | 190 | 1.6 | 8.0 | 0.00 | 0.00 | 0.00 | 32 | 1004.5 |
| 20260502021507 | 32 | 190 | 1.6 | 8.0 | 0.00 | 0.00 | 0.00 | 32 | 1004.9 |
| 20260502021007 | 32 | 190 | 0.0 | 0.0 | 0.00 | 0.00 | 0.00 | 28 | 1004.9 |
| 20260502020507 | 32 | 190 | 0.0 | 3.2 | 0.00 | 0.00 | 0.00 | 27 | 1004.8 |
| 20260502020058 | 33 | 0 | 0.0 | 9.7 | 0.00 | 0.00 | 0.00 | 27 | 1004.2 |
| 20260502020007 | 33 | 190 | 0.0 | 9.7 | 0.00 | 0.00 | 0.00 | 27 | 1004.7 |
| 20260502015507 | 33 | 190 | 1.6 | 9.7 | 0.00 | 0.00 | 0.00 | 26 | 1004.5 |
| 20260502015009 | 33 | 190 | 1.6 | 9.7 | 0.00 | 0.00 | 0.00 | 26 | 1004.5 |
| 20260502014558 | 33 | 190 | 3.2 | 9.7 | 0.00 | 0.00 | 0.00 | 26 | 1003.8 |
| 20260502014506 | 33 | 190 | 3.2 | 9.7 | 0.00 | 0.00 | 0.00 | 26 | 1004.3 |
| 20260502014008 | 33 | 190 | 1.6 | 9.7 | 0.00 | 0.00 | 0.00 | 26 | 1004.1 |
| 20260502013506 | 33 | 190 | 1.6 | 11.3 | 0.00 | 0.00 | 0.00 | 26 | 1004.0 |
| 20260502013100 | 33 | 190 | 3.2 | 9.7 | 0.00 | 0.00 | 0.00 | 26 | 1003.4 |
| 20260502013006 | 33 | 190 | 3.2 | 9.7 | 0.00 | 0.00 | 0.00 | 26 | 1003.9 |
| 20260502012506 | 33 | 190 | 3.2 | 9.7 | 0.00 | 0.00 | 0.00 | 26 | 1003.8 |
| 20260502012006 | 33 | 190 | 3.2 | 11.3 | 0.00 | 0.00 | 0.00 | 26 | 1003.7 |
| 20260502011557 | 34 | 190 | 3.2 | 11.3 | 0.00 | 0.00 | 0.00 | 25 | 1003.1 |
| 20260502011505 | 34 | 190 | 1.6 | 9.7 | 0.00 | 0.00 | 0.00 | 26 | 1003.6 |
| 20260502011005 | 34 | 190 | 3.2 | 11.3 | 0.00 | 0.00 | 0.00 | 25 | 1003.6 |
| 20260502010511 | 34 | 190 | 4.8 | 8.0 | 0.00 | 0.00 | 0.00 | 25 | 1003.4 |
| 20260502010109 | 35 | 190 | 1.6 | 9.7 | 0.00 | 0.00 | 0.00 | 24 | 1002.9 |
| 20260502010005 | 35 | 190 | 1.6 | 9.7 | 0.00 | 0.00 | 0.00 | 25 | 1003.4 |
| 20260502005505 | 35 | 190 | 4.8 | 11.3 | 0.00 | 0.00 | 0.00 | 24 | 1003.2 |
| 20260502005005 | 35 | 190 | 4.8 | 14.5 | 0.00 | 0.00 | 0.00 | 24 | 1003.1 |
| 20260502004605 | 35 | 190 | 4.8 | 14.5 | 0.00 | 0.00 | 0.00 | 23 | 1002.6 |
| 20260502004506 | 35 | 190 | 6.4 | 14.5 | 0.00 | 0.00 | 0.00 | 24 | 1002.9 |
| 20260502004004 | 35 | 190 | 6.4 | 14.5 | 0.00 | 0.00 | 0.00 | 23 | 1002.9 |
| 20260502003503 | 35 | 190 | 4.8 | 17.7 | 0.00 | 0.00 | 0.00 | 23 | 1002.7 |
| 20260502003105 | 35 | 190 | 6.4 | 20.9 | 0.00 | 0.00 | 0.00 | 22 | 1002.3 |
| 20260502003003 | 35 | 190 | 4.8 | 20.9 | 0.00 | 0.00 | 0.00 | 23 | 1002.7 |
| 20260502002502 | 36 | 190 | 6.4 | 19.3 | 0.00 | 0.00 | 0.00 | 23 | 1002.6 |
| 20260502002002 | 36 | 190 | 11.3 | 19.3 | 0.00 | 0.00 | 0.00 | 23 | 1002.5 |
| 20260502001557 | 36 | 190 | 8.0 | 20.9 | 0.00 | 0.00 | 0.00 | 22 | 1002.2 |
| 20260502001506 | 36 | 190 | 9.7 | 20.9 | 0.00 | 0.00 | 0.00 | 22 | 1002.4 |
| 20260502001001 | 36 | 190 | 8.0 | 20.9 | 0.00 | 0.00 | 0.00 | 22 | 1002.3 |
| 20260502000502 | 36 | 190 | 9.7 | 20.9 | 0.00 | 0.00 | 0.00 | 22 | 1002.3 |
| 20260502000059 | 36 | 190 | 9.7 | 17.7 | 0.00 | 0.00 | 0.00 | 21 | 1002.1 |
| 20260502000002 | 36 | 190 | 11.3 | 17.7 | 0.00 | 0.00 | 0.00 | 22 | 1002.2 |
| 20260501235501 | 37 | 190 | 4.8 | 12.9 | 0.00 | 0.00 | 0.00 | 22 | 1002.2 |
| 20260501235002 | 37 | 190 | 1.6 | 11.3 | 0.00 | 0.00 | 0.00 | 22 | 1002.1 |
| 20260501234600 | 37 | 190 | 4.8 | 11.3 | 0.00 | 0.00 | 0.00 | 22 | 1001.8 |
| 20260501234501 | 37 | 190 | 3.2 | 11.3 | 0.00 | 0.00 | 0.00 | 23 | 1002.0 |
| 20260501234001 | 37 | 190 | 3.2 | 11.3 | 0.00 | 0.00 | 0.00 | 22 | 1002.0 |
| 20260501233501 | 37 | 190 | 3.2 | 22.5 | 0.00 | 0.00 | 0.00 | 22 | 1001.9 |
| 20260501233101 | 37 | 190 | 11.3 | 22.5 | 0.00 | 0.00 | 0.00 | 22 | 1001.9 |
| 20260501233059 | 37 | 190 | 8.0 | 22.5 | 0.00 | 0.00 | 0.00 | 22 | 1001.7 |
| 20260501232559 | 37 | 190 | 3.2 | 12.9 | 0.00 | 0.00 | 0.00 | 23 | 1001.8 |
| 20260501232059 | 37 | 190 | 1.6 | 19.3 | 0.00 | 0.00 | 0.00 | 23 | 1001.8 |
| 20260501231638 | 37 | 190 | 3.2 | 19.3 | 0.00 | 0.00 | 0.00 | 23 | 1001.8 |
| 20260501231608 | 37 | 190 | 3.2 | 19.3 | 0.00 | 0.00 | 0.00 | 22 | 1001.6 |
| 20260501231100 | 37 | 190 | 4.8 | 17.7 | 0.00 | 0.00 | 0.00 | 23 | 1001.9 |
| 20260501230559 | 37 | 190 | 9.7 | 17.7 | 0.00 | 0.00 | 0.00 | 23 | 1001.9 |
| 20260501225559 | 37 | 190 | 3.2 | 12.9 | 0.00 | 0.00 | 0.00 | 23 | 1001.8 |
| 20260501225059 | 37 | 190 | 3.2 | 19.3 | 0.00 | 0.00 | 0.00 | 23 | 1001.9 |
| 20260501224611 | 37 | 190 | 9.7 | 19.3 | 0.00 | 0.00 | 0.00 | 23 | 1001.9 |
| 20260501224606 | 37 | 190 | 8.0 | 19.3 | 0.00 | 0.00 | 0.00 | 23 | 1001.8 |
| 20260501224058 | 37 | 190 | 4.8 | 11.3 | 0.00 | 0.00 | 0.00 | 24 | 1001.9 |
| 20260501223557 | 37 | 190 | 1.6 | 14.5 | 0.00 | 0.00 | 0.00 | 24 | 1001.9 |
| 20260501223107 | 37 | 190 | 8.0 | 20.9 | 0.00 | 0.00 | 0.00 | 23 | 1001.9 |
| 20260501223057 | 37 | 190 | 3.2 | 20.9 | 0.00 | 0.00 | 0.00 | 24 | 1002.0 |
| 20260501222556 | 37 | 190 | 9.7 | 20.9 | 0.00 | 0.00 | 0.00 | 24 | 1002.0 |
| 20260501222056 | 37 | 190 | 0.0 | 6.4 | 0.00 | 0.00 | 0.00 | 24 | 1002.0 |
| 20260501221607 | 37 | 190 | 0.0 | 12.9 | 0.00 | 0.00 | 0.00 | 24 | 1002.0 |
| 20260501221559 | 37 | 190 | 0.0 | 16.1 | 0.00 | 0.00 | 0.00 | 23 | 1001.9 |
| 20260501221053 | 37 | 190 | 1.6 | 17.7 | 0.00 | 0.00 | 0.00 | 24 | 1002.3 |
| 20260501220552 | 37 | 190 | 4.8 | 17.7 | 0.00 | 0.00 | 0.00 | 24 | 1002.3 |
| 20260501220059 | 37 | 190 | 6.4 | 16.1 | 0.00 | 0.00 | 0.00 | 23 | 1002.3 |
| 20260501220052 | 37 | 190 | 4.8 | 16.1 | 0.00 | 0.00 | 0.00 | 23 | 1002.4 |
| 20260501215553 | 37 | 190 | 3.2 | 16.1 | 0.00 | 0.00 | 0.00 | 24 | 1002.5 |
| 20260501215051 | 37 | 190 | 3.2 | 17.7 | 0.00 | 0.00 | 0.00 | 24 | 1002.5 |
| 20260501214603 | 37 | 190 | 6.4 | 16.1 | 0.00 | 0.00 | 0.00 | 24 | 1002.5 |
| 20260501214549 | 37 | 190 | 6.4 | 17.7 | 0.00 | 0.00 | 0.00 | 25 | 1002.6 |
| 20260501214048 | 37 | 190 | 8.0 | 16.1 | 0.00 | 0.00 | 0.00 | 25 | 1002.7 |
| 20260501213546 | 37 | 190 | 1.6 | 19.3 | 0.00 | 0.00 | 0.00 | 25 | 1002.7 |
| 20260501213101 | 37 | 190 | 4.8 | 19.3 | 0.00 | 0.00 | 0.00 | 24 | 1002.7 |
| 20260501213045 | 36 | 190 | 1.6 | 19.3 | 0.00 | 0.00 | 0.00 | 25 | 1002.9 |
| 20260501212544 | 36 | 190 | 4.8 | 19.3 | 0.00 | 0.00 | 0.00 | 24 | 1002.9 |
| 20260501212044 | 36 | 190 | 6.4 | 19.3 | 0.00 | 0.00 | 0.00 | 25 | 1003.0 |
| 20260501211622 | 36 | 190 | 4.8 | 17.7 | 0.00 | 0.00 | 0.00 | 24 | 1002.9 |
| 20260501211600 | 36 | 190 | 8.0 | 17.7 | 0.00 | 0.00 | 0.00 | 24 | 1003.2 |
| 20260501211042 | 36 | 190 | 8.0 | 17.7 | 0.00 | 0.00 | 0.00 | 24 | 1003.3 |
| 20260501210542 | 37 | 190 | 9.7 | 17.7 | 0.00 | 0.00 | 0.00 | 24 | 1003.2 |
| 20260501210057 | 37 | 190 | 4.8 | 17.7 | 0.00 | 0.00 | 0.00 | 23 | 1003.0 |
| 20260501210041 | 37 | 190 | 8.0 | 17.7 | 0.00 | 0.00 | 0.00 | 24 | 1003.3 |
| 20260501205541 | 36 | 190 | 0.0 | 16.1 | 0.00 | 0.00 | 0.00 | 24 | 1003.4 |
| 20260501205040 | 36 | 190 | 4.8 | 16.1 | 0.00 | 0.00 | 0.00 | 24 | 1003.6 |
| 20260501204643 | 36 | 190 | 3.2 | 19.3 | 0.00 | 0.00 | 0.00 | 23 | 1003.3 |
| 20260501204539 | 36 | 190 | 4.8 | 19.3 | 0.00 | 0.00 | 0.00 | 24 | 1003.6 |
| 20260501204038 | 36 | 190 | 6.4 | 19.3 | 0.00 | 0.00 | 0.00 | 23 | 1003.8 |
| 20260501203537 | 36 | 190 | 4.8 | 12.9 | 0.00 | 0.00 | 0.00 | 24 | 1003.8 |
| 20260501203104 | 36 | 190 | 8.0 | 16.1 | 0.00 | 0.00 | 0.00 | 23 | 1003.6 |
| 20260501203035 | 36 | 190 | 6.4 | 16.1 | 0.00 | 0.00 | 0.00 | 24 | 1003.9 |
| 20260501202535 | 36 | 190 | 6.4 | 17.7 | 0.00 | 0.00 | 0.00 | 24 | 1004.1 |
| 20260501202034 | 36 | 190 | 1.6 | 20.9 | 0.00 | 0.00 | 0.00 | 24 | 1004.2 |
| 20260501201600 | 36 | 190 | 0.0 | 6.4 | 0.00 | 0.00 | 0.00 | 24 | 1004.1 |
| 20260501201534 | 36 | 190 | 1.6 | 16.1 | 0.00 | 0.00 | 0.00 | 24 | 1004.4 |
| 20260501201032 | 35 | 190 | 0.0 | 6.4 | 0.00 | 0.00 | 0.00 | 26 | 1004.5 |
| 20260501200531 | 35 | 190 | 1.6 | 16.1 | 0.00 | 0.00 | 0.00 | 26 | 1004.6 |
| 20260501200059 | 35 | 190 | 6.4 | 16.1 | 0.00 | 0.00 | 0.00 | 25 | 1004.6 |
| 20260501200028 | 35 | 190 | 4.8 | 16.1 | 0.00 | 0.00 | 0.00 | 25 | 1004.8 |
| 20260501195528 | 35 | 190 | 4.8 | 16.1 | 0.00 | 0.00 | 0.00 | 26 | 1004.9 |
| 20260501195027 | 35 | 190 | 6.4 | 17.7 | 0.00 | 0.00 | 0.00 | 26 | 1004.9 |
| 20260501194602 | 35 | 190 | 8.0 | 19.3 | 0.00 | 0.00 | 0.00 | 25 | 1004.9 |
| 20260501194527 | 35 | 190 | 3.2 | 19.3 | 0.00 | 0.00 | 0.00 | 26 | 1005.2 |
| 20260501194025 | 35 | 190 | 6.4 | 19.3 | 0.00 | 0.00 | 0.00 | 27 | 1005.3 |
| 20260501193523 | 35 | 190 | 4.8 | 19.3 | 0.00 | 0.00 | 0.00 | 26 | 1005.2 |
| 20260501193059 | 35 | 190 | 3.2 | 12.9 | 0.00 | 0.00 | 0.00 | 27 | 1005.3 |
| 20260501193034 | 35 | 190 | 1.6 | 12.9 | 0.00 | 0.00 | 0.00 | 28 | 1005.5 |
| 20260501192521 | 34 | 190 | 4.8 | 16.1 | 0.00 | 0.00 | 0.00 | 28 | 1005.7 |
| 20260501192020 | 35 | 190 | 8.0 | 16.1 | 0.00 | 0.00 | 0.00 | 28 | 1005.9 |
| 20260501191600 | 35 | 190 | 1.6 | 22.5 | 0.00 | 0.00 | 0.00 | 27 | 1005.7 |
| 20260501191520 | 34 | 190 | 0.0 | 22.5 | 0.00 | 0.00 | 0.00 | 28 | 1006.0 |
| 20260501191019 | 34 | 190 | 3.2 | 20.9 | 0.00 | 0.00 | 0.00 | 29 | 1006.1 |
| 20260501190518 | 34 | 190 | 8.0 | 20.9 | 0.00 | 0.00 | 0.00 | 29 | 1006.2 |
| 20260501190105 | 34 | 0 | 4.8 | 20.9 | 0.00 | 0.00 | 0.00 | 28 | 1006.0 |
| 20260501190025 | 34 | 190 | 3.2 | 20.9 | 0.00 | 0.00 | 0.00 | 29 | 1006.4 |
| 20260501185515 | 34 | 190 | 3.2 | 14.5 | 0.00 | 0.00 | 0.00 | 29 | 1006.5 |
| 20260501185018 | 34 | 190 | 4.8 | 14.5 | 0.00 | 0.00 | 0.00 | 30 | 1006.7 |
| 20260501184558 | 33 | 0 | 3.2 | 16.1 | 0.00 | 0.00 | 0.00 | 29 | 1006.3 |
| 20260501184512 | 33 | 190 | 1.6 | 16.1 | 0.00 | 0.00 | 0.00 | 30 | 1006.7 |
| 20260501184011 | 33 | 190 | 1.6 | 16.1 | 0.00 | 0.00 | 0.00 | 30 | 1006.8 |
| 20260501183515 | 33 | 190 | 3.2 | 14.5 | 0.00 | 0.00 | 0.00 | 30 | 1006.9 |
| 20260501183120 | 33 | 190 | 4.8 | 16.1 | 0.00 | 0.00 | 0.00 | 29 | 1006.7 |
| 20260501183008 | 33 | 190 | 1.6 | 14.5 | 0.00 | 0.00 | 0.00 | 30 | 1007.1 |
| 20260501182507 | 33 | 190 | 6.4 | 16.1 | 0.00 | 0.00 | 0.00 | 29 | 1007.1 |
| 20260501182007 | 33 | 190 | 4.8 | 12.9 | 0.00 | 0.00 | 0.00 | 30 | 1007.3 |
| 20260501181608 | 33 | 190 | 3.2 | 12.9 | 0.00 | 0.00 | 0.00 | 30 | 1007.0 |
| 20260501181505 | 33 | 190 | 0.0 | 12.9 | 0.00 | 0.00 | 0.00 | 31 | 1007.5 |
| 20260501181003 | 33 | 190 | 4.8 | 12.9 | 0.00 | 0.00 | 0.00 | 31 | 1007.6 |
| 20260501180502 | 32 | 190 | 0.0 | 14.5 | 0.00 | 0.00 | 0.00 | 31 | 1007.8 |
| 20260501180110 | 32 | 190 | 6.4 | 14.5 | 0.00 | 0.00 | 0.00 | 30 | 1007.5 |
| 20260501180002 | 32 | 190 | 4.8 | 14.5 | 0.00 | 0.00 | 0.00 | 31 | 1008.0 |
| 20260501175601 | 32 | 190 | 3.2 | 14.5 | 0.00 | 0.00 | 0.00 | 31 | 1008.1 |
| 20260501175059 | 32 | 190 | 4.8 | 11.3 | 0.00 | 0.00 | 0.00 | 30 | 1008.3 |
| 20260501174607 | 32 | 190 | 3.2 | 14.5 | 0.00 | 0.00 | 0.00 | 30 | 1007.7 |
| 20260501174559 | 32 | 190 | 1.6 | 14.5 | 0.00 | 0.00 | 0.00 | 31 | 1008.3 |
| 20260501174058 | 32 | 190 | 4.8 | 14.5 | 0.00 | 0.00 | 0.00 | 31 | 1008.4 |
| 20260501173555 | 32 | 190 | 1.6 | 8.0 | 0.00 | 0.00 | 0.00 | 32 | 1008.5 |